Location: Triton
(47.6048°N, 122.9899°W)
Time: 15:37:55
(UTC+00:00)

ARIANE 6 FM1 Upper Stage - Pass Details

Date: 16 February 2026
Orbit: 523 x 607 km, 62.0° (Epoch: 8 March)

Event Time Altitude Azimuth Distance (km) Brightness Sun altitude
Rises 04:54:07 0° 303° (WNW) 2,658 7.1 -33.7°
Reaches altitude 10° 04:57:01 10° 280° (W) 1,768 6.0 -34.1°
Enters shadow 04:57:57 13° 268° (W) 1,579 5.6 -34.3°
